EDT,Max TemperatureF,Mean TemperatureF,Min TemperatureF,Max Dew PointF,MeanDew PointF,Min DewpointF,Max Humidity, Mean Humidity, Min Humidity, Max Sea Level PressureIn, Mean Sea Level PressureIn, Min Sea Level PressureIn, Max VisibilityMiles, Mean VisibilityMiles, Min VisibilityMiles, Max Wind SpeedMPH, Mean Wind SpeedMPH, Max Gust SpeedMPH,PrecipitationIn, CloudCover, Events, WindDirDegrees
2012-3-1,39,36,33,32,30,28,82,76,70,29.87,29.79,29.62,10,10,10,25,10,32,T,7,,229
2012-3-2,47,40,33,44,33,29,89,80,70,29.84,29.51,29.21,10,8,4,32,13,40,0.23,5,Rain-Snow,104
2012-3-3,36,33,30,29,25,21,82,72,61,29.83,29.71,29.55,10,6,0,30,16,39,0.01,8,Snow,257
2012-3-4,34,31,27,27,24,21,85,74,63,29.95,29.86,29.78,10,7,1,17,9,20,0.04,8,Snow,271
2012-3-5,34,27,20,22,18,15,84,66,47,30.40,30.24,29.97,10,6,1,15,7,21,0.03,7,Snow,315
2012-3-6,67,49,31,36,29,21,69,50,31,30.35,30.13,29.98,10,10,10,33,17,45,0.00,2,,178
2012-3-7,67,60,52,46,37,26,56,44,32,30.09,30.00,29.87,10,10,10,37,21,48,0.00,5,,198
2012-3-8,64,48,31,54,38,22,93,69,45,30.22,30.00,29.81,10,8,5,36,16,49,0.29,6,Rain,276
2012-3-9,37,31,25,25,17,14,64,55,45,30.58,30.44,30.20,10,10,10,29,13,36,T,3,,322
2012-3-10,56,39,21,26,19,14,68,47,26,30.56,30.42,30.28,10,10,10,24,13,32,0.00,0,,177
2012-3-11,69,53,36,36,28,24,59,41,22,30.34,30.25,30.12,10,10,10,17,10,21,0.00,0,,189
2012-3-12,71,61,51,57,50,36,89,68,47,30.12,29.92,29.75,10,9,3,26,14,37,0.37,7,Rain-Thunderstorm,193
2012-3-13,64,55,46,48,38,24,93,58,22,30.12,30.06,29.92,10,10,6,16,7,21,0.00,1,,271
2012-3-14,81,62,43,57,46,26,83,58,33,30.11,30.04,29.96,10,10,10,24,10,30,0.00,0,,173
2012-3-15,81,72,63,62,59,57,90,68,45,30.03,29.99,29.95,10,10,10,22,11,31,0.08,1,,221
2012-3-16,79,67,55,58,56,53,93,70,47,30.10,30.06,30.01,10,10,7,13,7,18,0.00,0,,194
2012-3-17,78,67,55,57,53,51,86,65,43,30.16,30.09,30.03,10,10,8,21,10,26,0.00,0,,164
2012-3-18,77,69,61,60,56,54,84,65,46,30.13,30.06,30.01,10,10,7,14,6,18,0.04,3,Rain,172
2012-3-19,79,69,58,63,58,54,84,69,54,30.06,30.02,29.97,10,10,7,15,7,20,0.02,1,Rain,168
2012-3-20,83,74,65,56,54,52,68,51,34,30.10,30.04,29.98,10,10,10,23,10,29,0.00,0,,153
2012-3-21,85,74,62,55,54,53,73,54,34,30.15,30.09,30.04,10,10,10,16,6,21,0.00,0,,155
2012-3-22,83,72,60,61,55,53,78,59,39,30.13,30.08,30.02,10,10,8,23,6,29,0.02,2,Rain,153
2012-3-23,67,61,54,63,59,50,93,89,84,30.05,29.92,29.83,10,9,4,20,7,26,0.24,7,Rain,131
2012-3-24,64,58,52,54,52,50,100,86,72,29.92,29.84,29.78,10,7,0,14,4,16,0.00,7,Fog,308
2012-3-25,69,56,43,52,47,36,96,76,55,30.12,29.99,29.91,10,10,7,18,9,28,0.00,4,,327
2012-3-26,52,44,36,38,27,22,82,56,30,30.38,30.31,30.14,10,10,10,17,10,22,0.00,2,,43
2012-3-27,64,50,35,41,27,16,59,44,29,30.34,30.13,29.86,10,10,10,24,16,31,T,1,,148
2012-3-28,64,51,38,51,41,33,89,64,39,30.04,29.88,29.79,10,10,9,32,15,38,T,0,,282
2012-3-29,54,44,34,36,33,30,82,68,54,30.17,30.09,30.02,10,10,10,16,6,24,0.00,0,,347
2012-3-30,48,45,41,43,39,32,92,79,65,30.01,29.82,29.71,10,7,2,24,12,30,0.30,7,Rain-Thunderstorm,72
2012-3-31,51,44,36,39,36,33,92,77,61,30.02,29.96,29.91,10,8,3,14,7,17,0.00,6,,77